Weather History for KACQ - February, 2014

Change the Weather History Date:

Saturday, February 8, 2014

  Actual Average Record
Temperature  
Mean Temperature 8 °F -  
Max Temperature 19 °F 22 °F 55 °F (1987)
Min Temperature -4 °F 2 °F -31 °F (1933)
Degree Days  
Heating Degree Days 58    
Moisture  
Dew Point 4 °F    
Average Humidity 80    
Maximum Humidity 92    
Minimum Humidity 68    
Precipitation  
Precipitation 0.00 in - - ()
Sea Level Pressure  
Sea Level Pressure 30.11 in    
Wind  
Wind Speed 4 mph (SSE)    
Max Wind Speed 7 mph    
Max Gust Speed -    
Visibility 7 miles    
Events Snow    
Averages and records for this station are not official NWS values.
T = Trace of Precipitation, MM = Missing Value Source: NWS Daily Summary

Daily Weather History Graph

Daily Weather History Graph

Search for Another Location

Airport or City:

Trip Planner

Search our weather history database for the weather conditions in past years. The results will help you decide how hot, cold, wet, or windy it might be!

Date:

Astronomy

Feb. 08, 2014 Rise Set
Actual Time 7:23 AM CST 5:34 PM CST
Civil Twilight 6:53 AM CST 6:04 PM CST
Nautical Twilight 6:18 AM CST 6:38 PM CST
Astronomical Twilight 5:45 AM CST 7:12 PM CST
Moon 12:25 PM CST (2/8) 2:39 AM CST (2/8)
Length of Visible Light 11h 11m
Length of Day
10h 11m
Waxing Gibbous, 69% of the Moon is Illuminated
Feb 8
Waxing Gibbous
Feb 14
Full
Feb 22
Last Quarter
Mar 1
New
Mar 8
First Quarter

Hourly Weather History & Observations

Time (CST) Temp. Windchill Dew Point Humidity Pressure Visibility Wind Dir Wind Speed Gust Speed Precip Events Conditions
12:16 AM 1.4 °F -11.3 °F -4.0 °F 78% 30.16 in 10.0 mi South 6.9 mph - N/A   Clear
12:36 AM 1.4 °F -8.3 °F -4.0 °F 78% 30.16 in 10.0 mi South 4.6 mph - N/A   Clear
12:55 AM 1.4 °F -11.3 °F -4.0 °F 78% 30.16 in 10.0 mi South 6.9 mph - N/A   Clear
1:16 AM 1.4 °F -11.3 °F -4.0 °F 78% 30.15 in 10.0 mi South 6.9 mph - N/A   Clear
1:36 AM 1.4 °F -8.3 °F -4.0 °F 78% 30.15 in 10.0 mi South 4.6 mph - N/A   Clear
1:56 AM 1.4 °F -9.9 °F -4.0 °F 78% 30.14 in 10.0 mi South 5.8 mph - N/A   Clear
2:15 AM 1.4 °F -9.9 °F -4.0 °F 78% 30.13 in 10.0 mi South 5.8 mph - N/A   Clear
2:35 AM 1.4 °F - -4.0 °F 78% 30.13 in 10.0 mi Calm Calm - N/A   Clear
2:56 AM 1.4 °F -6.2 °F -4.0 °F 78% 30.13 in 10.0 mi SE 3.5 mph - N/A   Clear
3:16 AM -0.4 °F -10.4 °F -5.8 °F 78% 30.13 in 10.0 mi SE 4.6 mph - N/A   Clear
3:35 AM -0.4 °F -10.4 °F -5.8 °F 78% 30.13 in 10.0 mi SE 4.6 mph - N/A   Clear
3:55 AM -0.4 °F -10.4 °F -5.8 °F 78% 30.12 in 10.0 mi ESE 4.6 mph - N/A   Clear
4:16 AM -0.4 °F -12.0 °F -5.8 °F 78% 30.12 in 10.0 mi SE 5.8 mph - N/A   Clear
4:36 AM -4.0 °F -16.3 °F -9.4 °F 78% 30.11 in 10.0 mi ESE 5.8 mph - N/A   Scattered Clouds
4:55 AM -0.4 °F -10.4 °F -5.8 °F 78% 30.11 in 10.0 mi ESE 4.6 mph - N/A Snow Light Snow
5:16 AM 1.4 °F -9.9 °F -4.0 °F 78% 30.10 in 10.0 mi ESE 5.8 mph - N/A   Overcast
5:36 AM 1.4 °F -6.2 °F -4.0 °F 78% 30.10 in 10.0 mi ESE 3.5 mph - N/A   Overcast
5:56 AM 3.2 °F -4.2 °F -2.2 °F 78% 30.09 in 10.0 mi ESE 3.5 mph - N/A   Overcast
6:16 AM 3.2 °F -4.2 °F -0.4 °F 85% 30.09 in 10.0 mi SE 3.5 mph - N/A   Overcast
6:35 AM 3.2 °F -4.2 °F -0.4 °F 85% 30.09 in 10.0 mi ESE 3.5 mph - N/A Snow Light Snow
6:55 AM 5.0 °F -2.1 °F -0.4 °F 78% 30.10 in 7.0 mi ESE 3.5 mph - N/A Snow Light Snow
7:16 AM 6.8 °F -3.5 °F 1.4 °F 79% 30.09 in 10.0 mi East 5.8 mph - N/A Snow Light Snow
7:36 AM 6.8 °F -0.1 °F 3.2 °F 85% 30.09 in 7.0 mi ESE 3.5 mph - N/A Snow Light Snow
7:55 AM 8.6 °F - 3.2 °F 79% 30.10 in 10.0 mi Calm Calm - N/A   Overcast
8:16 AM 8.6 °F 2.0 °F 5.0 °F 85% 30.10 in 7.0 mi SE 3.5 mph - N/A Snow Light Snow
8:36 AM 8.6 °F 0.1 °F 5.0 °F 85% 30.10 in 4.0 mi ESE 4.6 mph - N/A Snow Light Snow
8:56 AM 10.4 °F 2.2 °F 5.0 °F 79% 30.10 in 2.5 mi ESE 4.6 mph - N/A Snow Light Snow
9:16 AM 12.2 °F 2.9 °F 6.8 °F 79% 30.09 in 1.0 mi ESE 5.8 mph - N/A Snow Light Snow
9:36 AM 12.2 °F 2.9 °F 6.8 °F 79% 30.10 in 0.8 mi SE 5.8 mph - N/A Snow Light Snow
9:56 AM 14.0 °F 5.1 °F 10.4 °F 86% 30.10 in 1.5 mi SE 5.8 mph - N/A Snow Light Snow
10:16 AM 14.0 °F 3.9 °F 10.4 °F 86% 30.09 in 1.2 mi SE 6.9 mph - N/A Snow Light Snow
10:36 AM 14.0 °F 3.9 °F 10.4 °F 86% 30.09 in 3.0 mi SE 6.9 mph - N/A Snow Light Snow
10:55 AM 14.0 °F 5.1 °F 8.6 °F 79% 30.09 in 4.0 mi SSE 5.8 mph - N/A Snow Light Snow
11:16 AM 14.0 °F 5.1 °F 8.6 °F 79% 30.09 in 3.0 mi SE 5.8 mph - N/A Snow Light Snow
11:36 AM 15.8 °F 8.6 °F 10.4 °F 79% 30.09 in 2.5 mi SE 4.6 mph - N/A Snow Light Snow
11:56 AM 19.4 °F 12.8 °F 12.2 °F 74% 30.08 in 2.5 mi SE 4.6 mph - N/A Snow Light Snow
12:16 PM 19.4 °F 12.8 °F 12.2 °F 74% 30.08 in 2.5 mi SSE 4.6 mph - N/A Snow Light Snow
12:36 PM 19.4 °F 14.3 °F 10.4 °F 68% 30.07 in 3.0 mi SSE 3.5 mph - N/A Snow Light Snow
12:56 PM 19.4 °F 14.3 °F 12.2 °F 74% 30.07 in 2.5 mi South 3.5 mph - N/A Snow Light Snow
1:16 PM 19.4 °F 14.3 °F 10.4 °F 68% 30.07 in 1.8 mi South 3.5 mph - N/A Snow Light Snow
1:36 PM 17.6 °F 9.3 °F 8.6 °F 68% 30.07 in 1.5 mi SW 5.8 mph - N/A Snow Light Snow
1:56 PM 19.4 °F 11.5 °F 12.2 °F 74% 30.07 in 3.0 mi SSW 5.8 mph - N/A Snow Light Snow
2:16 PM 19.4 °F 14.3 °F 12.2 °F 74% 30.06 in 2.5 mi SSW 3.5 mph - N/A Snow Light Snow
2:36 PM 17.6 °F 9.3 °F 10.4 °F 73% 30.08 in 3.0 mi WSW 5.8 mph - N/A Snow Light Snow
2:55 PM 19.4 °F - 10.4 °F 68% 30.06 in 7.0 mi Calm Calm - N/A Snow Light Snow
3:16 PM 17.6 °F - 8.6 °F 68% 30.06 in 2.0 mi Calm Calm - N/A Snow Light Snow
3:36 PM 17.6 °F - 10.4 °F 73% 30.07 in 7.0 mi Calm Calm - N/A   Clear
3:56 PM 17.6 °F - 10.4 °F 73% 30.08 in 10.0 mi Calm Calm - N/A   Clear
4:16 PM 14.0 °F - 8.6 °F 79% 30.09 in 10.0 mi Calm Calm - N/A   Clear
4:36 PM 14.0 °F - 8.6 °F 79% 30.10 in 10.0 mi Calm Calm - N/A   Mostly Cloudy
4:55 PM 14.0 °F - 8.6 °F 79% 30.10 in 5.0 mi Calm Calm - N/A Snow Light Snow
5:16 PM 12.2 °F - 8.6 °F 85% 30.11 in 4.0 mi Calm Calm - N/A Snow Light Snow
5:36 PM 14.0 °F - 8.6 °F 79% 30.11 in 5.0 mi Calm Calm - N/A Snow Light Snow
5:55 PM 14.0 °F - 10.4 °F 86% 30.11 in 5.0 mi Calm Calm - N/A Snow Light Snow
6:16 PM 14.0 °F - 10.4 °F 86% 30.12 in 5.0 mi Calm Calm - N/A Snow Light Snow
6:36 PM 14.0 °F - 10.4 °F 86% 30.13 in 7.0 mi Calm Calm - N/A   Overcast
6:56 PM 12.2 °F - 6.8 °F 79% 30.14 in 10.0 mi Calm Calm - N/A   Scattered Clouds
7:16 PM 12.2 °F - 8.6 °F 85% 30.14 in 10.0 mi Calm Calm - N/A   Clear
7:36 PM 6.8 °F - 3.2 °F 85% 30.13 in 10.0 mi Calm Calm - N/A   Clear
7:56 PM 8.6 °F 2.0 °F 3.2 °F 79% 30.13 in 10.0 mi WNW 3.5 mph - N/A   Clear
8:16 PM 5.0 °F -2.1 °F 3.2 °F 92% 30.14 in 7.0 mi WNW 3.5 mph - N/A   Clear
8:35 PM 5.0 °F -2.1 °F 1.4 °F 85% 30.14 in 10.0 mi WNW 3.5 mph - N/A   Clear
8:56 PM 5.0 °F - 1.4 °F 85% 30.15 in 7.0 mi Calm Calm - N/A   Clear
9:16 PM 5.0 °F - 1.4 °F 85% 30.14 in 7.0 mi Calm Calm - N/A   Scattered Clouds
9:36 PM 5.0 °F - 1.4 °F 85% 30.16 in 7.0 mi Calm Calm - N/A   Mostly Cloudy
9:56 PM 5.0 °F -2.1 °F 1.4 °F 85% 30.16 in 7.0 mi WSW 3.5 mph - N/A   Overcast
10:16 PM 6.8 °F -0.1 °F 3.2 °F 85% 30.17 in 5.0 mi WSW 3.5 mph - N/A Snow Light Snow
10:35 PM 8.6 °F - 5.0 °F 85% 30.17 in 4.0 mi Calm Calm - N/A Snow Light Snow
10:56 PM 8.6 °F 0.1 °F 5.0 °F 85% 30.17 in 7.0 mi WSW 4.6 mph - N/A Snow Light Snow
11:16 PM 8.6 °F 2.0 °F 5.0 °F 85% 30.17 in 4.0 mi WSW 3.5 mph - N/A Snow Light Snow
11:35 PM 8.6 °F 2.0 °F 5.0 °F 85% 30.17 in 7.0 mi West 3.5 mph - N/A Snow Light Snow
11:56 PM 8.6 °F -1.3 °F 5.0 °F 85% 30.17 in 5.0 mi West 5.8 mph - N/A Snow Light Snow